BEIDOU-3 M18 (43707 NORAD) Tracking and Keplerian Element Data

This shows tracking and keplerian element data for the satellite.

Feedback or suggestion? Click here.




ElementValue
Catalog43707
NameBEIDOU-3 M18
Epoch Orbit52
Epoch Day351.21386431
Epoch Year2018
RAAN275.7659
Inclination54.9772
Eccentricity0.0009406
Argument of Perigee282.261
Mean Anonmoly94.3663
Mean Motion1.86236017
Decay Rate-3.4E-07
L11 43707U 18093B 18351.21386431 -.00000034 00000-0 00000+0 0 9995
L22 43707 54.9772 275.7659 0009406 282.2610 94.3663 1.86236017 520

Live tracking and technical data element details for BEIDOU-3 M18 (NORAD 43707). BEIDOU-3 M18 can be tracked NOW for your location showing map with azimuth and elevation plus other details from your city location.

Track the satellite on the map from your city or location and see movement details for azimuth, elevation, latitude, longitude, range, height, and movement on the map or in text.







IsCatalogInMostPopularTable: catalog: 43707, numindb: 101
Update: records affected: 1



GetName: 43707 BEIDOU-3 M18

Hit Count: updated at: Sun, 26 May 2019 19:16:17 GMT